Main page
METAR-TAF:

METAR-TAF

Airports :

Sialkot International Airport

Sialkot, Pakistan

latitude: 32-32N, longitude: 74-22E, elevation: 255 m

Current weather observation

The report was made 1 hour and 58 minutes ago, at 04:00 UTC
Wind 8 kt from the East
Temperature 30°C
Humidity 79%
Pressure 1006 hPa
Visibility: 4000 m
Few clouds at a height of 4000 ft
Scattered clouds at a height of 10000 ft
smoke

METAR: OPST 250400Z 09008KT 4000 FU FEW040 SCT100 30/26 Q1006 NOSIG RH78

Time: 10:58 (05:58 UTC)


TAF: missing

Weather observations and forecasts of more than 4000 airports (METAR and TAF reports).

The available stations are represented by yellow and red dots on the map.

Hover mouse over dot to see the name of the station.

Then click to see weather observations and forecasts.

To change the map : click on the green buttons with a black cross to zoom in, on the green button with a dash to zoom out, or on the green arrows for adjacent maps.


METAR-TAF: